Regional Weather Roundup
Issued by NWS

Home | Current Version | Previous Version | Text Only | Print | Product List | Glossary Off
Versions: 1 2 3 4 5 6 7 8 9 10 11 12 13 14 15 16 17 18 19 20 21 22 23 24 25 26 27 28 29 30 31 32 33 34 35 36 37 38 39 40 41 42 43 44 45 46 47 48 49 50

000
ASUS45 KCYS 242310
RWRWY

WYOMING REGIONAL WEATHER ROUNDUP
NATIONAL WEATHER SERVICE CHEYENNE WY
500 PM MDT SUN JUL 24 2016

NOTE:  "FAIR" INDICATES FEW OR NO CLOUDS BELOW 12,000 FEET
WITH NO SIGNIFICANT WEATHER AND/OR OBSTRUCTIONS TO VISIBILITY.

WYZ001-250000-
YELLOWSTONE NATIONAL PARK

CITY           SKY/WX    TMP DP  RH WIND       PRES   REMARKS
LK YELLOWSTONE   N/A     75  21  13 VRB5      30.35S
W YELLOWSTONE  NOT AVBL

$$
WYZ002>013-054>058-071-098>099-250000-
NORTHERN WYOMING

CITY           SKY/WX    TMP DP  RH WIND       PRES   REMARKS
JACKSON        NOT AVBL
CODY           FAIR      84  37  18 CALM      30.11F
GREYBULL       FAIR      90  27  10 VRB3      30.03F
WORLAND        FAIR      91  32  12 N9        30.04F
SHERIDAN       FAIR      90  38  16 CALM      30.05F
BUFFALO        FAIR      88  39  17 E7G16     30.13F
GILLETTE       FAIR      85  39  19 S5G20     30.10F
HULETT         MOCLDY    86  46  25 E12       30.12F
NEWCASTLE      FAIR      86  36  16 S13G24    30.13F

$$
WYZ014>020-022>026-101>103-250000-
CENTRAL WYOMING

CITY           SKY/WX    TMP DP  RH WIND       PRES   REMARKS
BIG PINEY      FAIR      83  25  12 W7        30.26F
PINEDALE       FAIR      81  27  13 N12G17    30.27S
DUBOIS         FAIR      79  19  11 N6        30.25F
LANDER         FAIR      88  33  14 NE9       30.13F
RIVERTON       FAIR      86  24  10 VRB6      30.13F
CASPER         FAIR      87  29  12 VRB3      30.15F
DOUGLAS          N/A    N/A N/A N/A MISG      30.13F

$$
WYZ021-027>030-104>119-250000-
SOUTHERN WYOMING

CITY           SKY/WX    TMP DP  RH WIND       PRES   REMARKS
EVANSTON       FAIR      85  16   7 W15       30.27F
KEMMERER         N/A    N/A N/A N/A W14G31    30.28S
FORT BRIDGER   FAIR      88  13   6 W22G35    30.29S
ROCK SPRINGS   FAIR      87  14   6 W17G31    30.23F
DIXON          FAIR      90  28  10 W5        30.22F
RAWLINS        FAIR      87  18   8 W14G23    30.23F
SARATOGA       FAIR      86  25  10 NW12G18   30.26S
LARAMIE        FAIR      80  30  16 W3        30.26F
CHEYENNE       FAIR      73  54  51 SE13      30.20F
TORRINGTON     FAIR      82  53  36 E22G29    30.09F
PINE BLUFFS    FAIR      63  54  72 S8        30.17F

$$



USA.gov is the U.S. government's official web portal to all federal, state and local government web resources and services.